Syracuse, NY

11:43 PM EDT on July 21, 2017 (GMT -0400)
Syracuse Hancock International

Weather History for KSYR - April, 2013

Change the Weather History Date:

Thursday, April 4, 2013

  Actual Average Record
Temperature  
Mean Temperature 41 °F 42 °F  
Max Temperature 55 °F 52 °F 78 °F (1950)
Min Temperature 27 °F 32 °F 10 °F (1954)
Degree Days  
Heating Degree Days 24 23  
Month to date heating degree days 123 94  
Since 1 July heating degree days 5458 5882  
Cooling Degree Days 0 0  
Month to date cooling degree days 0 0  
Year to date cooling degree days 0 0  
Moisture  
Dew Point 18 °F    
Average Humidity 44    
Maximum Humidity 63    
Minimum Humidity 24    
Precipitation  
Precipitation 0.00 in 0.11 in 1.45 in (2017)
Month to date precipitation 0.44 0.45  
Year to date precipitation 6.88 7.97  
Snow  
Snow 0.00 in 0.20 in 7.10 in (1975)
Month to date snowfall 12.0 0.9  
Since 1 July snowfall 115.4 120.8  
Snow Depth 3.00 in    
Sea Level Pressure  
Sea Level Pressure 30.18 in    
Wind  
Wind Speed 9 mph (SW)    
Max Wind Speed 17 mph    
Max Gust Speed 22 mph    
Visibility 10 miles    
Events      
T = Trace of Precipitation, MM = Missing Value Source: NWS Daily Summary

Daily Weather History Graph

Daily Weather History Graph

Search for Another Location

Airport or City:

Trip Planner

Search our weather history database for the weather conditions in past years. The results will help you decide how hot, cold, wet, or windy it might be!

Date:

Astronomy

Apr. 04, 2013 Rise Set
Actual Time 6:40 AM EDT 7:34 PM EDT
Civil Twilight 6:11 AM EDT 8:03 PM EDT
Nautical Twilight 5:37 AM EDT 8:37 PM EDT
Astronomical Twilight 5:01 AM EDT 9:13 PM EDT
Moon 3:14 AM EDT (4/4) 1:41 PM EDT (4/4)
Length of Visible Light 13h 51m
Length of Day
12h 53m
Waning Crescent, 34% of the Moon is Illuminated
Apr 4
Waning Crescent
Apr 10
New
Apr 18
First Quarter
Apr 25
Full
May 2
Last Quarter

Hourly Weather History & Observations

Time (EDT) Temp. Windchill Dew Point Humidity Pressure Visibility Wind Dir Wind Speed Gust Speed Precip Events Conditions
12:54 AM 32.0 °F 23.6 °F 18.0 °F 56% 30.33 in 10.0 mi West 10.4 mph 18.4 mph N/A   Overcast
1:54 AM 32.0 °F 23.0 °F 19.0 °F 59% 30.32 in 10.0 mi West 11.5 mph - N/A   Mostly Cloudy
2:54 AM 30.9 °F 22.8 °F 18.0 °F 59% 30.31 in 10.0 mi West 9.2 mph - N/A   Overcast
3:54 AM 30.9 °F 22.8 °F 19.0 °F 61% 30.32 in 10.0 mi WSW 9.2 mph - N/A   Mostly Cloudy
4:38 AM 30.2 °F 21.9 °F 19.4 °F 64% 30.31 in 10.0 mi WSW 9.2 mph - N/A   Overcast
4:54 AM 30.0 °F 22.4 °F 19.0 °F 64% 30.32 in 10.0 mi WSW 8.1 mph - N/A   Overcast
5:54 AM 28.9 °F 19.8 °F 18.0 °F 64% 30.34 in 10.0 mi WSW 10.4 mph - N/A   Overcast
6:18 AM 28.4 °F 19.1 °F 17.6 °F 64% 30.32 in 10.0 mi WSW 10.4 mph - N/A   Partly Cloudy
6:54 AM 28.0 °F 19.3 °F 16.0 °F 61% 30.35 in 10.0 mi SW 9.2 mph - N/A   Partly Cloudy
7:08 AM 28.4 °F 19.1 °F 17.6 °F 64% 30.34 in 10.0 mi WSW 10.4 mph - N/A   Mostly Cloudy
7:45 AM 28.4 °F 21.2 °F 17.6 °F 64% 30.34 in 10.0 mi WSW 6.9 mph - N/A   Scattered Clouds
7:54 AM 28.9 °F 22.8 °F 17.1 °F 61% 30.34 in 10.0 mi SW 5.8 mph - N/A   Scattered Clouds
8:54 AM 30.9 °F 23.5 °F 17.1 °F 57% 30.33 in 10.0 mi West 8.1 mph - N/A   Scattered Clouds
9:54 AM 34.0 °F 26.0 °F 18.0 °F 52% 30.31 in 10.0 mi WSW 10.4 mph - N/A   Clear
10:54 AM 36.0 °F 32.1 °F 16.0 °F 44% 30.28 in 10.0 mi SW 4.6 mph - N/A   Scattered Clouds
11:54 AM 39.0 °F 35.7 °F 16.0 °F 39% 30.25 in 10.0 mi SW 4.6 mph - N/A   Clear
12:54 PM 43.0 °F 37.7 °F 17.1 °F 35% 30.20 in 10.0 mi SSW 9.2 mph - N/A   Scattered Clouds
1:54 PM 46.9 °F - 19.0 °F 33% 30.15 in 10.0 mi SW 8.1 mph - N/A   Mostly Cloudy
2:54 PM 50.0 °F - 17.1 °F 27% 30.10 in 10.0 mi Variable 3.5 mph - N/A   Mostly Cloudy
3:54 PM 53.1 °F - 18.0 °F 25% 30.05 in 10.0 mi WSW 11.5 mph 16.1 mph N/A   Mostly Cloudy
4:54 PM 54.0 °F - 19.9 °F 26% 30.02 in 10.0 mi South 8.1 mph - N/A   Mostly Cloudy
5:54 PM 54.0 °F - 19.0 °F 25% 29.99 in 10.0 mi SSW 10.4 mph - N/A   Mostly Cloudy
6:54 PM 53.1 °F - 19.9 °F 27% 29.99 in 10.0 mi South 10.4 mph - N/A   Mostly Cloudy
7:54 PM 48.9 °F - 19.0 °F 31% 29.97 in 10.0 mi South 5.8 mph - N/A   Mostly Cloudy
8:54 PM 48.0 °F - 19.0 °F 32% 29.96 in 10.0 mi South 8.1 mph - N/A   Mostly Cloudy
9:54 PM 46.9 °F - 18.0 °F 32% 29.94 in 10.0 mi South 12.7 mph - N/A   Scattered Clouds
10:54 PM 46.0 °F 41.0 °F 15.1 °F 29% 29.92 in 10.0 mi South 10.4 mph 19.6 mph N/A   Partly Cloudy
11:54 PM 44.1 °F 39.0 °F 15.1 °F 31% 29.91 in 10.0 mi SSW 9.2 mph - N/A   Mostly Cloudy